User: anonymous   Login
Location: Unspecified
(0.0000°N, 0.0000°E)
Time: 12:36:26
(UTC+00:00)
Language:

Transit 2A - Orbit

View from above orbital plane
View from above orbital plane
View from above satellite
View from above satellite

Ground track
Ground track

The orbit data is extracted from the following two-line orbital elements,

1    45U 60007A   18171.89494862 -.00000045 +00000-0 +15554-4 0  9994
2    45 066.6937 138.0864 0249421 126.2761 236.1663 14.33601972961587
Epoch (UTC): 20 June 2018 21:28:43
Eccentricity: 0.0249421
inclination: 66.6937°
perigee height: 601 km
apogee height: 958 km
right ascension of ascending node: 138.0864°
argument of perigee: 126.2761°
revolutions per day: 14.33601972
mean anomaly at epoch: 236.1663°
orbit number at epoch: 96158

The dashed part of the orbit path shows where the satellite is in the earth's shadow,  

DLR